CW8053 Weather Reports


time (UTC)temp
F
wind
direction
speed
knots
gust
knots
rain 1hr
in
rain 24hr
in
rain mn
in
humidity
%
barometer
mb
20260507224427 54 26 0.0 1.7 0.00 0.02 0.00 90 1014.7
20260507223527 54 0 0.0 0.0 0.00 0.02 0.00 90 1014.7
20260507222627 55 8 0.0 0.9 0.00 0.02 0.00 90 1014.6
20260507221730 55 13 0.9 0.9 0.00 0.02 0.00 90 1014.7
20260507220848 55 23 0.0 0.9 0.00 0.02 0.00 90 1014.6
20260507215927 55 0 0.0 0.0 0.00 0.02 0.00 90 1014.6
20260507215328 55 0 0.0 0.0 0.00 0.02 0.02 90 1014.5
20260507214428 55 0 0.0 0.0 0.00 0.02 0.02 90 1014.5
20260507213527 55 13 0.9 1.7 0.00 0.02 0.02 90 1014.3
20260507212627 55 0 0.0 0.0 0.00 0.02 0.02 90 1014.3
20260507211727 56 0 0.0 0.0 0.00 0.02 0.02 90 1014.3
20260507210828 56 0 0.0 0.0 0.00 0.02 0.02 90 1014.4
20260507205948 56 0 0.0 0.0 0.00 0.02 0.02 90 1014.4
20260507205327 56 0 0.0 0.0 0.00 0.02 0.02 89 1014.4
20260507204427 56 0 0.0 0.0 0.00 0.02 0.02 89 1014.4
20260507203528 56 0 0.0 0.0 0.00 0.02 0.02 89 1014.4
20260507202627 56 0 0.0 0.0 0.00 0.02 0.02 89 1014.3
20260507201727 56 0 0.0 0.0 0.00 0.02 0.02 89 1014.3
20260507200849 57 0 0.0 0.0 0.00 0.02 0.02 88 1014.3
20260507195927 57 11 0.0 0.9 0.00 0.02 0.02 88 1014.2
20260507195348 57 22 0.9 1.7 0.00 0.02 0.02 88 1014.1
20260507194448 58 0 0.0 0.0 0.00 0.02 0.02 88 1014.1
20260507193527 58 0 0.0 0.0 0.00 0.02 0.02 87 1014.0
20260507192638 58 0 0.0 0.0 0.00 0.02 0.02 87 1014.0
20260507191748 59 0 0.0 0.0 0.00 0.02 0.02 86 1014.0
20260507190827 60 0 0.0 0.0 0.00 0.02 0.02 86 1013.9
20260507185927 60 0 0.0 0.0 0.00 0.02 0.02 85 1013.9
20260507185327 60 0 0.0 0.0 0.00 0.02 0.02 85 1013.9
20260507184427 61 0 0.0 0.0 0.00 0.02 0.02 84 1014.0
20260507183548 61 0 0.0 0.0 0.00 0.02 0.02 84 1014.0
20260507182629 61 0 0.0 0.0 0.00 0.02 0.02 84 1014.0
20260507181729 61 126 0.9 2.6 0.00 0.02 0.02 84 1014.0
20260507180827 61 0 0.0 0.0 0.00 0.02 0.02 83 1013.8
20260507175927 62 0 0.0 0.0 0.00 0.02 0.02 83 1013.9
20260507175348 62 201 0.9 1.7 0.00 0.02 0.02 83 1013.9
20260507174448 62 0 0.0 0.0 0.00 0.02 0.02 83 1013.9
20260507173527 62 176 0.0 0.9 0.00 0.02 0.02 82 1013.9
20260507172627 62 196 0.0 0.9 0.00 0.02 0.02 83 1014.0
20260507171727 63 237 0.9 1.7 0.00 0.02 0.02 81 1014.0
20260507170828 63 14 1.7 4.3 0.00 0.02 0.02 81 1013.9
20260507165927 64 248 2.6 4.3 0.00 0.02 0.02 81 1013.7
20260507165327 64 235 3.5 6.1 0.00 0.02 0.02 82 1013.6
20260507164442 64 207 2.6 4.3 0.00 0.02 0.02 81 1013.7
20260507163548 64 205 3.5 5.2 0.00 0.02 0.02 80 1013.7
20260507162627 65 234 2.6 6.1 0.00 0.02 0.02 80 1013.7
20260507161748 66 229 3.5 7.0 0.00 0.02 0.02 79 1013.7
20260507160827 66 185 3.5 6.1 0.00 0.02 0.02 79 1013.7
20260507160009 66 129 6.1 7.8 0.00 0.02 0.02 77 1013.7
20260507155348 67 270 1.7 4.3 0.00 0.02 0.02 76 1013.6
20260507154427 67 130 3.5 6.1 0.00 0.02 0.02 76 1013.7
20260507153528 68 234 2.6 4.3 0.00 0.02 0.02 76 1013.8
20260507152627 68 231 3.5 6.1 0.00 0.02 0.02 76 1013.6
20260507151727 68 208 1.7 3.5 0.00 0.02 0.02 77 1013.8
20260507150848 67 133 3.5 7.0 0.00 0.02 0.02 76 1013.9
20260507145948 66 186 0.9 1.7 0.00 0.02 0.02 77 1013.9
20260507145327 67 216 3.5 4.3 0.00 0.02 0.02 77 1013.8
20260507144503 67 273 2.6 5.2 0.00 0.02 0.02 77 1013.7
20260507143528 67 315 1.7 3.5 0.00 0.02 0.02 76 1013.9
20260507142627 67 214 5.2 8.7 0.00 0.02 0.02 77 1013.8
20260507040835 59 76 1.7 3.5 0.00 0.13 0.00 84 1011.9
20260507035936 59 79 0.9 2.6 0.00 0.14 0.00 84 1012.0
20260507035357 59 66 2.6 4.3 0.00 0.15 0.00 84 1011.9
20260507034435 59 41 0.0 0.9 0.00 0.16 0.00 83 1012.0
20260507033535 59 23 4.3 7.8 0.00 0.16 0.00 83 1012.0
20260507032656 59 106 1.7 4.3 0.00 0.16 0.00 83 1011.9
20260507031735 59 84 2.6 5.2 0.00 0.16 0.00 83 1011.9
20260507030835 59 48 0.9 1.7 0.00 0.16 0.00 83 1012.0
20260507025934 59 93 1.7 3.5 0.00 0.16 0.00 83 1011.9
20260507025334 59 69 1.7 4.3 0.00 0.16 0.00 83 1011.9
20260507024435 59 140 1.7 2.6 0.00 0.17 0.00 83 1011.8
20260507023535 59 92 1.7 3.5 0.00 0.17 0.00 83 1011.9
20260507022634 59 151 2.6 3.5 0.00 0.17 0.00 83 1011.8
20260507021735 59 78 2.6 5.2 0.00 0.19 0.00 83 1011.8
20260507020842 59 110 1.7 2.6 0.00 0.21 0.00 83 1011.8
20260507015935 59 102 2.6 4.3 0.00 0.23 0.00 83 1011.8
20260507015356 59 80 0.0 0.9 0.00 0.25 0.00 83 1011.8
20260507014455 59 74 0.9 2.6 0.00 0.29 0.00 83 1011.7
20260507013535 59 118 0.9 2.6 0.00 0.33 0.00 83 1011.7
20260507012635 59 102 0.9 2.6 0.00 0.39 0.00 83 1011.8
20260507011735 60 54 0.9 2.6 0.00 0.44 0.00 83 1011.9
20260507010834 60 32 0.9 1.7 0.00 0.57 0.00 83 1011.9
20260507005934 59 297 2.6 5.2 0.00 0.57 0.00 83 1011.9
20260507005335 59 4 0.9 1.7 0.00 0.58 0.00 83 1012.0
20260507004435 60 316 1.7 3.5 0.00 0.59 0.00 84 1012.0
20260507003535 60 49 1.7 3.5 0.00 0.60 0.00 83 1011.9
20260507002635 59 115 1.7 3.5 0.00 0.60 0.00 83 1011.9
20260507001756 59 78 3.5 6.1 0.00 0.61 0.00 83 1011.9
20260507000856 60 14 0.0 2.6 0.00 0.61 0.00 83 1011.7
20260506235934 60 18 4.3 7.0 0.00 0.61 0.00 83 1011.7
20260506235334 60 1 2.6 3.5 0.00 0.61 0.00 83 1011.9
20260506234457 60 345 1.7 3.5 0.00 0.61 0.00 82 1011.9
20260506233556 60 27 0.9 2.6 0.00 0.61 0.00 82 1012.0
20260506232635 60 48 2.6 5.2 0.00 0.61 0.00 81 1012.0
20260506231756 60 46 2.6 4.3 0.00 0.61 0.00 81 1011.9
20260506230857 60 33 2.6 2.6 0.00 0.61 0.00 81 1012.0
20260506225936 60 86 0.0 1.7 0.00 0.61 0.00 81 1012.0
20260506225355 60 46 1.7 6.1 0.00 0.61 0.00 81 1012.0